Regional Weather Roundup
Issued by NWS Charleston, WV

Home | Current Version | Previous Version | Text Only | Print | Product List | Glossary Off
Versions: 1 2 3 4 5 6 7 8 9 10 11 12 13 14 15 16 17 18 19 20 21 22 23 24 25 26 27 28 29 30 31 32 33 34 35 36 37 38 39 40 41 42 43 44 45 46 47 48 49 50

000
ASUS41 KRLX 111210
RWRRLX
West Virginia Regional Weather Roundup
National Weather Service Charleston WV
800 AM EDT FRI JUL 11 2014

Note: "fair" indicates few or no clouds below 12,000 feet with no
significant weather and/or obstructions to visibility.

WVZ003-111300-
Northern Panhandle of West Virginia

CITY           SKY/WX    TMP DP  RH WIND       PRES   REMARKS
WHEELING       SUNNY     64  60  87 CALM      30.21R
$$

WVZ009-111300-
Northwest West Virginia

CITY           SKY/WX    TMP DP  RH WIND       PRES   REMARKS
PARKERSBURG    MOSUNNY   63  61  93 CALM      30.23R FOG
$$

WVZ006-111300-
Western West Virginia

CITY           SKY/WX    TMP DP  RH WIND       PRES   REMARKS
HUNTINGTON     SUNNY     66  63  90 N3        30.19R
$$

WVZ015-111300-
West Central West Virginia

CITY           SKY/WX    TMP DP  RH WIND       PRES   REMARKS
CHARLESTON     FOG       63  63 100 CALM      30.20R VSB 1
$$

WVZ031-111300-
North Central West Virginia

CITY           SKY/WX    TMP DP  RH WIND       PRES   REMARKS
CLARKSBURG     SUNNY     63  61  93 CALM      30.21R
MORGANTOWN     SUNNY     66  60  81 S3        30.22R
$$

WVZ035-042-045-111300-
South Central West Virginia

CITY           SKY/WX    TMP DP  RH WIND       PRES   REMARKS
BECKLEY        SUNNY     66  60  81 CALM      30.25R
BLUEFIELD      SUNNY     68  60  75 CALM      30.27R
LEWISBURG      SUNNY     62  58  90 N3        30.26R
$$

WVZ047-111300-
Northern Mountains of West Virginia

CITY           SKY/WX    TMP DP  RH WIND       PRES   REMARKS
ELKINS         FOG       59  57  93 CALM      30.26R VSB 1/4
$$

WVZ052-111300-
Eastern Panhandle of West Virginia

CITY           SKY/WX    TMP DP  RH WIND       PRES   REMARKS
MARTINSBURG    SUNNY     69  62  78 CALM      30.21R
PETERSBURG     CLOUDY    63  57  81 W5        30.25R
$$



USA.gov is the U.S. government's official web portal to all federal, state and local government web resources and services.